Redwood Falls, MN

9:23 AM CDT on March 28, 2017 (GMT -0500)
Redwood Falls Municipal

Weather History for KRWF - March, 2013

Change the Weather History Date:

Thursday, March 7, 2013

  Actual Average Record
Temperature  
Mean Temperature 17 °F -  
Max Temperature 26 °F 34 °F 77 °F (1987)
Min Temperature 8 °F 14 °F -12 °F (1960)
Degree Days  
Heating Degree Days 48    
Moisture  
Dew Point 12 °F    
Average Humidity 84    
Maximum Humidity 92    
Minimum Humidity 69    
Precipitation  
Precipitation 0.00 in - - ()
Sea Level Pressure  
Sea Level Pressure 30.32 in    
Wind  
Wind Speed 9 mph (SE)    
Max Wind Speed 18 mph    
Max Gust Speed 24 mph    
Visibility 7 miles    
Events Fog    
Averages and records for this station are not official NWS values.
T = Trace of Precipitation, MM = Missing Value Source: NWS Daily Summary

Daily Weather History Graph

Daily Weather History Graph

Search for Another Location

Airport or City:

Trip Planner

Search our weather history database for the weather conditions in past years. The results will help you decide how hot, cold, wet, or windy it might be!

Date:

Astronomy

Mar. 07, 2013 Rise Set
Actual Time 6:46 AM CST 6:16 PM CST
Civil Twilight 6:17 AM CST 6:45 PM CST
Nautical Twilight 5:43 AM CST 7:19 PM CST
Astronomical Twilight 5:10 AM CST 7:53 PM CST
Moon 3:55 AM CST (3/7) 1:57 PM CST (3/7)
Length of Visible Light 12h 27m
Length of Day
11h 29m
Waning Crescent, 20% of the Moon is Illuminated
Mar 7
Waning Crescent
Mar 11
New
Mar 19
First Quarter
Mar 27
Full
Apr 2
Last Quarter

Hourly Weather History & Observations

Time (CST) Temp. Windchill Dew Point Humidity Pressure Visibility Wind Dir Wind Speed Gust Speed Precip Events Conditions
12:53 AM 19.0 °F 10.0 °F 14.0 °F 81% 30.38 in 10.0 mi ESE 6.9 mph - N/A   Overcast
1:53 AM 18.0 °F 11.1 °F 14.0 °F 84% 30.39 in 10.0 mi ESE 4.6 mph - N/A   Overcast
2:53 AM 18.0 °F 11.1 °F 14.0 °F 84% 30.38 in 10.0 mi ESE 4.6 mph - N/A   Overcast
3:38 AM 17.6 °F 7.3 °F 12.2 °F 79% 30.31 in 10.0 mi SE 8.1 mph - N/A   Overcast
3:53 AM 17.1 °F 6.6 °F 12.9 °F 84% 30.37 in 10.0 mi SE 8.1 mph - N/A   Overcast
4:53 AM 16.0 °F 7.4 °F 12.9 °F 88% 30.37 in 10.0 mi ESE 5.8 mph - N/A   Overcast
5:09 AM 15.8 °F 6.1 °F 12.2 °F 86% 30.30 in 10.0 mi ESE 6.9 mph - N/A   Scattered Clouds
5:53 AM 12.0 °F 1.5 °F 9.0 °F 88% 30.38 in 10.0 mi SSE 6.9 mph - N/A   Clear
6:45 AM 8.6 °F -4.7 °F 6.8 °F 92% 30.31 in 6.0 mi SSE 9.2 mph - N/A   Scattered Clouds
6:51 AM 8.6 °F -6.3 °F 6.8 °F 92% 30.31 in 2.5 mi SE 11.5 mph - N/A   Mostly Cloudy
6:53 AM 10.0 °F -4.5 °F 7.0 °F 87% 30.37 in 1.0 mi SE 11.5 mph - N/A   Mostly Cloudy
7:00 AM 10.4 °F -4.8 °F 8.6 °F 92% 30.30 in 0.2 mi SE 12.7 mph - N/A Fog Light Freezing Fog
7:46 AM 10.4 °F -3.3 °F 8.6 °F 92% 30.30 in 2.0 mi SE 10.4 mph - N/A   Overcast
7:53 AM 10.9 °F -1.8 °F 9.0 °F 92% 30.37 in 3.0 mi SE 9.2 mph - N/A   Overcast
8:53 AM 10.9 °F -1.8 °F 9.0 °F 92% 30.37 in 5.0 mi SE 9.2 mph - N/A   Mostly Cloudy
9:33 AM 12.2 °F -1.0 °F 8.6 °F 85% 30.30 in 4.0 mi SE 10.4 mph - N/A   Scattered Clouds
9:53 AM 14.0 °F 0.5 °F 10.0 °F 84% 30.36 in 3.0 mi SE 11.5 mph - N/A   Partly Cloudy
10:05 AM 14.0 °F 0.5 °F 10.4 °F 86% 30.30 in 2.5 mi SE 11.5 mph - N/A   Scattered Clouds
10:16 AM 14.0 °F -0.2 °F 10.4 °F 86% 30.30 in 4.0 mi ESE 12.7 mph - N/A   Partly Cloudy
10:53 AM 16.0 °F 2.3 °F 10.9 °F 81% 30.36 in 5.0 mi SE 12.7 mph - N/A   Haze
11:53 AM 18.0 °F 5.4 °F 12.9 °F 81% 30.35 in 8.0 mi ESE 11.5 mph - N/A   Clear
12:53 PM 19.9 °F 7.3 °F 15.1 °F 81% 30.33 in 9.0 mi SE 12.7 mph - N/A   Clear
1:53 PM 23.0 °F 10.1 °F 16.0 °F 74% 30.30 in 10.0 mi ESE 15.0 mph - N/A   Clear
2:53 PM 25.0 °F 11.3 °F 17.1 °F 72% 30.28 in 10.0 mi ESE 18.4 mph - N/A   Clear
3:53 PM 26.1 °F 13.1 °F 17.1 °F 69% 30.27 in 10.0 mi ESE 17.3 mph 24.2 mph N/A   Clear
4:53 PM 26.1 °F 14.0 °F 18.0 °F 71% 30.26 in 10.0 mi ESE 15.0 mph - N/A   Clear
5:53 PM 24.1 °F 12.0 °F 17.1 °F 75% 30.26 in 10.0 mi ESE 13.8 mph - N/A   Clear
6:53 PM 23.0 °F 9.2 °F 17.1 °F 78% 30.27 in 10.0 mi SE 17.3 mph - N/A   Clear
7:53 PM 21.0 °F 9.3 °F 16.0 °F 81% 30.29 in 10.0 mi SSE 11.5 mph - N/A   Clear
8:53 PM 17.1 °F 5.8 °F 12.9 °F 84% 30.29 in 8.0 mi SE 9.2 mph - N/A   Clear
9:53 PM 18.0 °F 6.9 °F 14.0 °F 84% 30.30 in 7.0 mi ESE 9.2 mph - N/A   Clear
10:53 PM 18.0 °F 6.1 °F 14.0 °F 84% 30.30 in 7.0 mi SE 10.4 mph - N/A   Clear
11:53 PM 15.1 °F 3.3 °F 12.0 °F 88% 30.30 in 6.0 mi SE 9.2 mph - N/A   Clear